Location: Acheville
(50.3840°N, 2.8827°E)
Time: 02:34:20
(UTC+00:00)

NOSS 3-2 (A) - Visible Passes

Search period start: 21 May 2022 00:00
Search period end: 31 May 2022 00:00
Orbit: 756 x 1452 km, 63.4° (Epoch: 02 May)

Date Brightness Start Highest point End Pass type
(mag) Time Alt. Az. Time Alt. Az. Time Alt. Az.
21 May 5.2 20:48:01 10° NW 20:54:50 37° WSW 21:02:28 10° S visible
22 May 6.2 21:55:56 10° W 21:59:13 13° WSW 22:02:38 10° SW visible
23 May 5.9 21:08:50 10° WNW 21:14:15 21° WSW 21:20:05 10° SSW visible
24 May 5.6 20:22:39 10° WNW 20:29:08 31° WSW 20:36:17 10° S visible
26 May 6.3 20:43:55 10° WNW 20:48:26 16° WSW 20:53:13 10° SW visible
